Showing default

HISPASAT 36W-1, 41942

Orbit data source: Space-Track

HISPASAT 36W-1, 41942 is a payload satellite owned by Hispasat (ES) in GEO that was launched on Sat, 28 Jan 2017 UTC via a SOYUZ-ST-B launch vehicle from the French Guiana (FRGUI). Payload-class satellites include a variety of spacecraft equipped with specific instruments for various scientific and technological missions. These include communications satellites like Starlink; space stations such as the ISS; scientific satellites like the Hubble; Earth observation satellites from companies like Planet Labs, Umbra, and HawkEye 360; GPS; miniature CubeSats for education and research; and military/defense satellites.

Not visible in the next 10 days
Identifier
41942, 2017-006A
Orbit
GEO
Country
Flag of ESES / SPN
Related business
Manufacturer
OHB
Mission
Operational Commercial Communications
Bus & Motor
SMALLGEO, S400
Mass
3,220 kg wet, 1,700 kg dry
Launch date (UTC)
2017-01-28 (9 years ago)
Launch vehicle
SOYUZ-ST-B
Launch site
French Guiana (FRGUI)
Object type
Payload
Rocket body
Debris
Shape & HBR
Box + 2 Pan, 10.4 m
Radar Cross Section
23.149 m², Large (>1 m²)

Expand to show TLE details & history
Last TLE update: 2 days ago

TLE from 2 days ago
0 HISPASAT 36W-1
1 41942U 17006A   26171.17097696 -.00000249  00000-0  00000-0 0  9992
2 41942   0.0081 295.7233 0001104 144.3159 213.8941  1.00274209 34274
Epoch: 2026-06-20T04:06Z
TLE epoch observation values (Epoch: 2026-06-20T04:06:12.409Z)
Latitude
-0.01012°
Longitude
-36.00246°
Altitude
35,789.289 km
Speed
3.074 km/s
True Right ascension
19h 35m 45s
True Declination
0° 00' 36"
Sunlit
Object was in daylight at epoch
Visualization orbit readout
Latitude
Unknown
Longitude
Unknown
Altitude
Unknown
Speed
Unknown
Apparent Right ascension
Unknown
Apparent Declination
Unknown
Sunlit
N/A
Visualization observer readout
Local Sidereal Time
21:43:33
Azimuth
Unknown
Elevation
Unknown
Doppler factor
Unknown
Orbital elements
Apogee altitude
35,791.641 km
Perigee altitude
35,782.331 km
Semi-major axis
42,165.123 km
Eccentricity
0.00011
Inclination
0.0081°
RAAN
295.7233°
Arg. of periapsis
144.3159°
True anomaly
213.88705°
Mean anomaly
213.8941°
Eccentric anomaly
213.89057°
Mean motion
0.25068 °/min
Orbital period
1,436.12 mins
BSTAR
0
Loading maneuver chart data...
Computing Atmospheric mass density...
Loading historical data...
Loading historical data...
Loading historical data...
Loading historical data...
Loading historical data...
Loading historical data...
Loading historical data...
Other satellites on launch #6 in the year 2017 (2017-01-28 UTC)

Documentation

Showing up to 5 results
|